Regional Weather Roundup
Issued by NWS State College, PA

Home | Current Version | Previous Version | Graphics & Text | Print | Product List | Glossary On
Versions: 1 2 3 4 5 6 7 8 9 10 11 12 13 14 15 16 17 18 19 20 21 22 23 24 25 26 27 28 29 30 31 32 33 34 35 36 37 38 39 40 41 42 43 44 45 46 47 48 49 50
000
ASUS41 KCTP 280903
RWRCTP

REGIONAL WEATHER ROUNDUP
NATIONAL WEATHER SERVICE STATE COLLEGE PA
500 AM EDT SAT MAY 28 2016

Note: "fair" indicates few or no clouds below 12,000 feet with no
significant weather and/or obstructions to visibility.

* = STATION THAT DOES NOT REPORT PRECIPITATION /E.G. RAIN...SNOW...ETC/
    THUNDER OR FOG.

PAZ002>004-007>009-013>016-020>023-029>032-281000-
WESTERN PENNSYLVANIA

CITY           SKY/WX    TMP DP  RH WIND       PRES   REMARKS
ERIE           PTCLDY    72  63  73 S6        30.05S
MEADVILLE      PTCLDY    66  62  87 S3        30.09S
FRANKLIN*      PTCLDY    63  57  82 SE3       30.13R
NEW CASTLE     FAIR      64  63  96 CALM      30.09R
BEAVER COUNTY  NOT AVBL
BUTLER*        PTCLDY    64  61  88 CALM      30.13R
PITTSBURGH INT MOCLDY    68  62  81 CALM      30.09R
PITTSBURGH     PTCLDY    68  62  81 S5        30.09R
INDIANA*       PTCLDY    64  63  94 CALM      30.15R
LATROBE        PTCLDY    63  63 100 CALM      30.12R
WASHINGTON CO* CLOUDY    61  57  88 CALM      30.10S
$$

PAZ004>006-010>012-017>019-024>028-033>037-041-042-045-046-049>053-281000-
CENTRAL PENNSYLVANIA

CITY           SKY/WX    TMP DP  RH WIND       PRES   REMARKS
BRADFORD       PTCLDY    58  55  90 CALM      30.15R
DUBOIS         CLEAR     64  61  90 CALM      30.13R
CLEARFIELD     CLEAR     62  59  90 CALM      30.13R
JOHNSTOWN      CLEAR     66  58  75 SW5       30.15R
ALTOONA        CLEAR     64  62  93 W3        30.13R
STATE COLLEGE  CLEAR     64  63  97 CALM      30.12R FOG
WILLIAMSPORT   MOCLDY    65  63  93 CALM      30.08R
SELINSGROVE    CLEAR     66  63  90 CALM      30.10R
FT INDIANTOWN  PTCLDY    65  65 100 N2        30.10R
CAPITAL CITY   CLEAR     67  64  90 CALM      30.10R
HARRISBURG     CLEAR     68  64  87 SE6       30.09R
YORK           PTCLDY    64  62  93 CALM      30.10R
$$

PAZ038>040-043-044-047-048-054-055-060>062-067>071-281000-
EASTERN PENNSYLVANIA

CITY           SKY/WX    TMP DP  RH WIND       PRES   REMARKS
SCRANTON       PTCLDY    65  63  93 CALM      30.10R
MOUNT POCONO   PTCLDY    65  61  87 W6        30.14R
ALLENTOWN      MOCLDY    68  63  84 SW5       30.10R
QUAKERTOWN*    PTSUNNY   68  64  88 CALM      30.12R
READING        PTCLDY    70  62  76 S3        30.09S
LANCASTER      CLEAR     65  62  90 E5        30.11R
COATESVILLE    SUNNY     68  63  83 CALM      30.14R
POTTSTOWN      PTCLDY    70  63  78 CALM      30.13R
BLUE BELL      PTCLDY    68  61  77 SW5       30.11R
DOYLESTOWN     PTCLDY    67  61  81 S3        30.11R
WILLOW GROVE   NOT AVBL
NORTH PHILA    PTCLDY    70  60  70 S5        30.12R
PHILADELPHIA   PTCLDY    69  59  70 S7        30.12R
$$




USA.gov is the U.S. government's official web portal to all federal, state and local government web resources and services.